Preview of NWS' New Version of Forecast
This preview is not operational and should not be used for support decisions.

Regional Weather Roundup (RWR)

Issued by National Weather Service (NWS)

                            
000
ASUS43 KLSX 221657
RWRMO 

WEATHER SUMMARY FOR MISSOURI
NATIONAL WEATHER SERVICE SPRINGFIELD MO
1200 PM CDT MON JUL 22 2019

NOTE: "FAIR" INDICATES FEW OR NO CLOUDS BELOW 12,000 FEET WITH NO
       SIGNIFICANT WEATHER AND/OR OBSTRUCTIONS TO VISIBILITY.
       CURRENT SKY AND/OR WEATHER CONDITIONS ARE NOT AVAILABLE FOR
       CHILLICOTHE AND FARMINGTON.

MOZ001>031-035>038-043-044-053-054-221800-
...NORTHERN AND WESTERN MISSOURI...
  
CITY           SKY/WX    TMP DP  RH WIND       PRES   REMARKS
KANSAS CTY INT MOSUNNY   79  64  60 N14G26    30.17S                  
LEE'S SUMMIT   MOSUNNY   80  62  54 N16       30.16R                  
ST JOSEPH      MOSUNNY   80  61  52 N14G23    30.18S                  
CHILLICOTHE      N/A     80  62  54 N8G21     30.15S                  
     
$$
MOZ066>068-077>081-088>096-101>105-221800-
...SOUTHWEST MISSOURI...
  
CITY           SKY/WX    TMP DP  RH WIND       PRES   REMARKS
SPRINGFIELD    PTSUNNY   77  65  66 N16G26    30.08R                  
JOPLIN         MOSUNNY   77  64  64 N18G31    30.11R                  
BRANSON        LGT RAIN  72  72 100 N9        30.06R VSB 1            
               
$$
MOZ032>034-039>042-045>050-055>058-069>072-221800-
...CENTRAL MISSOURI...  
  
CITY           SKY/WX    TMP DP  RH WIND       PRES   REMARKS
COLUMBIA       NOT AVBL                                               
ROLLA          SUNNY     76  62  62 NE13      30.08S                  
SEDALIA        SUNNY     77  64  64 N15G21    30.13R                  
WARRENSBURG    SUNNY     77  61  57 N12       30.13S                  
               
$$
MOZ051-052-059>065-221800-
...EAST CENTRAL MISSOURI...
  
CITY           SKY/WX    TMP DP  RH WIND       PRES   REMARKS
ST LOUIS INTL  MOSUNNY   73  63  70 N3        30.05R                  
                   
$$
MOZ072>076-082>087-097>100-106>115-221800-
...SOUTH CENTRAL AND SOUTHEAST MISSOURI...
  
CITY           SKY/WX    TMP DP  RH WIND       PRES   REMARKS
CAPE GIRARDEAU CLOUDY    75  71  87 E10       29.94F                  
POPLAR BLUFF   PTSUNNY   80  74  81 N6        29.95R                  
WEST PLAINS    CLOUDY    75  70  84 N16G23    30.04R                  
                                       
$$